Lid_Strength_Index
1 1 1 1 1 1 0 0 0 0 0 -0 -0 -0 -0 -0 0 5 8 5 3 -2 2 6 6 7 8 8 8 10 14 15 14 14 12 11 12 11 11 11 11 9 10 10 9
2 1 1 1 1 1 1 1 1 1 0 0 0 0 0 0 4 7 2 -1 -2 -2 6 7 8 8 10 9 9 11 15 14 12 11 12 11 11 11 10 12 11 10 11 10 10
2 2 2 2 2 1 1 1 1 1 1 1 0 0 0 1 8 9 -1 -3 -3 -0 5 7 8 8 10 10 9 11 12 11 10 10 10 11 12 10 12 11 11 10 10 10 11
2 2 2 2 2 2 1 1 1 1 1 1 1 0 0 4 13 7 -2 -2 -2 4 6 7 9 10 11 11 9 12 10 10 9 9 10 11 10 11 11 8 9 9 10 10 11
2 2 2 2 2 2 2 1 1 1 1 1 1 0 4 10 9 4 -1 -1 4 6 8 9 10 10 11 11 11 11 10 9 9 9 9 10 10 11 11 9 9 9 10 10 10
1 2 2 2 2 2 1 1 1 1 1 1 1 1 9 13 7 3 4 5 7 8 9 9 10 9 11 11 11 11 10 10 10 10 10 10 10 11 8 9 9 10 10 10 10
1 2 2 2 2 2 2 2 2 2 2 2 1 2 8 10 7 5 6 7 7 8 10 9 9 10 11 12 10 11 12 12 11 10 10 10 12 12 8 10 10 10 10 10 10
2 2 2 2 2 2 2 1 1 1 1 1 1 5 12 7 8 8 8 9 8 8 9 9 9 10 11 11 12 14 14 15 13 12 11 11 14 11 10 10 10 10 11 11 10
2 2 2 2 2 2 2 2 2 2 2 1 5 9 12 6 9 8 9 9 9 9 9 7 9 12 12 15 16 17 18 17 15 11 12 13 14 11 11 11 11 11 11 11 10
3 3 3 3 3 3 2 2 3 4 3 3 5 11 10 10 8 9 9 9 10 10 11 11 12 14 15 16 19 18 19 17 17 14 14 15 14 11 10 12 11 11 11 11 10
2 2 3 3 2 2 4 8 11 12 9 11 10 12 11 9 8 10 9 9 10 12 14 13 15 16 14 14 14 17 18 18 15 14 15 15 14 13 11 11 13 12 11 10 9
2 2 2 2 2 2 7 9 10 10 14 11 10 10 9 8 10 10 8 11 12 14 14 15 17 13 14 15 15 15 16 16 14 13 16 15 15 13 13 12 11 10 10 10 9
2 2 2 2 2 5 8 9 7 8 14 13 11 12 11 9 11 10 9 11 13 14 14 15 14 13 14 15 15 17 17 16 16 15 16 17 16 15 13 12 11 10 10 10 10
3 2 2 2 5 7 8 8 7 10 17 15 14 12 11 10 13 11 10 11 14 14 15 15 13 14 15 16 15 16 14 15 15 17 19 17 20 17 15 15 14 12 11 11 11
3 3 3 3 6 7 8 8 8 12 20 13 14 10 11 14 13 13 12 12 15 15 15 16 15 16 16 14 14 15 15 15 17 18 19 19 20 17 15 16 14 12 11 11 11
3 3 3 4 5 5 6 7 9 15 19 14 14 14 14 14 14 14 13 12 13 15 15 15 14 14 14 14 14 14 16 16 18 18 21 17 18 18 17 15 15 13 12 11 11
4 3 4 3 6 5 5 8 13 17 13 15 16 15 16 16 15 15 15 16 16 19 19 18 16 15 14 16 16 15 17 21 22 22 20 18 19 16 15 14 13 13 12 11 12
5 4 4 3 5 5 6 9 17 13 12 12 14 15 16 15 14 15 17 17 16 17 19 19 17 16 15 14 16 16 16 20 24 20 18 19 20 15 14 13 13 13 13 12 12
5 4 4 4 5 5 8 14 15 12 10 11 11 13 15 15 14 16 17 17 15 15 17 19 18 16 15 15 14 17 18 15 19 26 23 17 17 13 14 14 14 13 13 13 13
8 6 6 3 5 6 11 13 12 10 10 10 14 12 16 15 16 15 16 16 15 14 13 16 17 15 16 15 15 15 15 18 19 23 24 19 19 18 15 13 12 13 12 13 13
7 9 6 2 3 8 13 14 12 9 8 10 11 12 13 12 13 14 14 13 14 14 12 13 14 16 14 17 16 16 16 16 16 16 18 20 17 12 13 12 13 13 13 13 12
8 12 4 2 9 9 12 10 9 10 7 9 9 10 12 11 12 12 13 11 10 10 11 11 13 16 15 13 14 14 14 14 15 17 16 16 16 9 10 9 10 10 9 10 11
8 9 3 4 12 11 9 9 8 9 9 9 10 9 9 11 14 11 11 8 8 9 11 10 14 18 16 13 13 13 12 11 12 13 17 19 17 9 9 9 9 9 10 11 11
8 12 8 5 6 9 10 11 11 8 9 8 9 8 10 12 10 12 12 9 9 10 8 8 12 15 18 14 12 14 13 12 13 16 16 15 14 10 9 9 8 8 7 9 9
10 12 10 11 10 9 9 10 11 11 8 8 10 10 11 13 12 12 11 11 10 8 10 11 15 13 14 13 13 14 14 13 15 14 16 14 14 11 9 8 8 7 8 11 12
11 12 10 11 10 11 9 10 11 10 9 10 11 11 10 12 11 14 14 13 14 12 13 12 17 15 17 15 14 15 14 13 12 13 13 13 13 9 12 12 12 11 12 13 12
10 8 9 12 12 13 13 11 12 11 10 9 12 13 13 12 11 11 11 11 12 14 15 14 16 18 19 16 18 21 16 15 13 12 14 15 14 14 15 15 13 14 14 14 13